Home   Weather   Gaza   Past weeks

Flag for Palestinian Territories Past Weather in Gaza, Gaza Strip, Palestinian Territories — Yesterday and Last 2 Weeks

Now
88 °F

Sunny.


Feels Like: 87 °F
Forecast: 76 / 84 °F
Wind: 17 mph from Northwest

Location: Ben Gurion International Airport

Current Time: Sep 25, 2016 at 1:46:06 PM

Latest Report: Sep 25, 2016 at 1:20 PM


Visibility: 10 mi

Pressure: 29.74 "Hg

Humidity: 38%

Dew Point: 59 °F

Location of GazaLocation

Past Weather in Gaza — Graph

°F

Gaza Temperature Yesterday

Maximum temperature yesterday: 88 °F (at 3:20 PM)
Minimum temperature yesterday: 72 °F (at 5:20 AM)
Average temperature yesterday: 80 °F

High & Low Weather Summary for the Past Weeks

 TemperatureHumidityPressure
High90 °F (Sep 10, 12:20 PM)83% (Sep 11, 2:20 AM)29.98 "Hg (Sep 11, 2:20 AM)
Low68 °F (Sep 25, 6:50 AM)24% (Sep 25, 11:50 AM)29.77 "Hg (Sep 25, 11:50 AM)
Average81 °F62%29.88 "Hg
* Reported Sep 10 12:20 PM — Sep 25 12:20 PM, Gaza, Weather by CustomWeather, © 2016

Note: Actual official high and low records may vary slightly from our data, if they occured in-between our weather recording intervals... More about our weather records

Advertising

Gaza Weather History for the Previous 24 Hours

Scroll right to see more
 ConditionsComfort  
Time TempWeatherWind HumidityBarometerVisibility
12:20 PM
Sun, Sep 25
88 °FSunny.15 mph27%29.77 "Hg10 mi
11:50 AM90 °FPassing clouds.6 mph24%29.77 "HgN/A
11:20 AM86 °FSunny.3 mph25%29.80 "Hg10 mi
10:50 AM86 °FSunny.5 mph25%29.80 "Hg10 mi
10:20 AM82 °FSunny.6 mph30%29.80 "Hg10 mi
9:50 AM82 °FSunny.7 mph30%29.83 "Hg10 mi
9:20 AM81 °FSunny.9 mph32%29.83 "Hg10 mi
8:50 AM79 °FSunny.2 mph48%29.83 "Hg10 mi
8:20 AM75 °FSunny.1 mph50%29.83 "Hg10 mi
7:50 AM72 °FSunny.1 mph57%29.83 "Hg10 mi
7:20 AM70 °FSunny.1 mph60%29.83 "Hg10 mi
6:50 AM68 °FSunny.1 mph64%29.83 "Hg10 mi
6:20 AM70 °FClear.3 mph60%29.83 "Hg10 mi
5:50 AM70 °FClear.6 mph60%29.83 "Hg10 mi
5:20 AM70 °FClear.3 mph60%29.83 "Hg10 mi
4:50 AM70 °FClear.3 mph60%29.83 "Hg10 mi
4:20 AM70 °FClear.6 mph60%29.83 "Hg10 mi
3:50 AM70 °FClear.5 mph60%29.83 "Hg10 mi
3:20 AM72 °FClear.3 mph61%29.83 "Hg10 mi
2:50 AM72 °FClear.3 mph61%29.83 "Hg10 mi
2:20 AM72 °FClear.6 mph61%29.83 "Hg10 mi
1:50 AM73 °FClear.3 mph57%29.83 "Hg10 mi
1:20 AM73 °FClear.2 mph61%29.83 "Hg10 mi
12:50 AM73 °FClear.1 mph61%29.86 "Hg10 mi
12:20 AM77 °FClear.3 mph54%29.86 "Hg10 mi
11:50 PM
Sat, Sep 24
77 °FClear.3 mph54%29.86 "Hg10 mi
11:20 PM77 °FClear.3 mph57%29.86 "Hg10 mi
10:50 PM77 °FClear.7 mph57%29.86 "Hg10 mi
10:20 PM79 °FClear.8 mph54%29.86 "Hg10 mi
9:50 PM79 °FClear.9 mph51%29.86 "Hg10 mi
9:20 PM79 °FClear.10 mph51%29.86 "Hg10 mi
8:50 PM79 °FClear.7 mph51%29.86 "Hg10 mi
8:20 PM79 °FClear.6 mph51%29.86 "Hg10 mi
7:50 PM81 °FClear.9 mph48%29.86 "Hg10 mi
7:20 PM81 °FClear.10 mph48%29.86 "Hg10 mi
6:50 PM81 °FClear.13 mph48%29.86 "Hg10 mi
6:20 PM82 °FSunny.12 mph48%29.86 "Hg10 mi
5:50 PM82 °FSunny.16 mph48%29.86 "Hg10 mi
5:20 PM82 °FSunny.18 mph48%29.86 "Hg10 mi
4:50 PM84 °FSunny.18 mph43%29.83 "Hg10 mi
4:20 PM84 °FSunny.17 mph43%29.83 "Hg10 mi
3:50 PM84 °FSunny.18 mph43%29.83 "Hg10 mi
3:20 PM88 °FSunny.17 mph38%29.83 "Hg10 mi
2:50 PM86 °FPassing clouds.18 mph40%29.86 "HgN/A
2:20 PM86 °FPassing clouds.18 mph40%29.86 "HgN/A
1:50 PM86 °FPassing clouds.16 mph40%29.86 "HgN/A
1:20 PM86 °FPassing clouds.14 mph46%29.89 "HgN/A
Weather by CustomWeather, © 2016

See weather overviewHow to use our weather pages